RH
26 27 25 22 24 31 27 22 33 48 51 50 47 42 37 38 47 26 25 24 16 13 12 16 26 32 31 33 39 42 50 39 34 32 27 26 29 35 44 49 44 46 47 46 42
25 26 28 24 23 28 32 26 37 48 52 56 55 53 48 49 52 36 47 39 34 34 32 33 28 25 23 29 45 48 45 36 34 33 32 31 36 42 43 50 50 51 49 48 47
14 22 30 28 24 25 32 30 37 46 57 63 61 56 52 52 50 43 47 44 42 43 39 43 42 43 43 37 34 46 42 39 38 38 35 31 32 39 47 52 54 54 54 56 51
13 18 24 33 28 26 31 34 31 44 57 62 61 60 59 59 51 49 48 46 49 59 68 56 59 56 44 44 46 48 36 36 40 42 43 35 33 31 37 45 53 56 58 60 59
56 36 75 27 36 28 28 37 33 32 49 58 60 63 61 58 56 60 58 54 47 59 57 62 66 68 56 49 50 61 48 48 46 46 40 43 37 34 30 33 42 47 56 58 60
100 80 48 94 33 31 31 32 39 32 35 50 56 62 57 56 58 58 56 57 57 55 53 48 53 70 64 61 62 57 52 46 48 48 44 40 34 43 23 29 34 42 57 60 60
96 98 60 82 72 35 30 35 40 38 32 40 48 54 57 66 55 53 53 54 57 55 59 76 87 58 57 54 62 57 57 55 47 40 40 38 32 27 26 28 31 36 48 61 62
100 100 95 74 95 71 34 39 41 44 37 35 40 41 48 62 58 54 52 56 60 59 57 56 57 68 68 68 85 92 97 75 53 54 50 51 33 35 39 29 26 30 36 49 58
92 99 99 85 78 88 66 47 48 45 44 36 37 29 31 36 54 64 52 50 60 58 58 59 56 57 66 73 91 96 99 98 95 86 73 70 57 36 39 31 31 30 29 37 48
44 100 99 96 90 84 100 87 58 50 46 43 34 32 34 39 42 44 50 50 57 60 59 60 65 90 96 77 95 93 97 88 94 95 78 78 82 48 42 48 38 33 34 31 37
4 98 99 99 91 96 98 98 76 63 43 44 41 41 38 41 44 47 59 62 62 59 57 60 77 100 95 87 89 81 89 91 90 87 93 72 66 51 53 49 37 32 32 40 33
3 41 97 100 98 99 98 100 84 63 56 53 46 39 32 28 39 47 47 60 60 59 64 74 60 66 72 93 97 97 99 100 91 65 67 63 41 39 40 39 34 32 25 28 39
10 6 55 98 98 99 97 96 89 76 74 54 48 39 32 36 38 48 58 72 76 79 73 70 65 69 71 68 99 99 100 99 80 54 58 70 35 29 23 23 24 27 25 25 30
84 8 73 97 98 98 99 98 99 94 68 52 41 43 40 47 61 49 66 85 96 93 93 92 84 90 87 79 76 82 76 68 73 92 96 68 78 47 37 26 21 17 20 22 25
90 32 74 98 98 99 94 98 100 94 83 55 60 64 63 61 61 63 69 100 100 100 94 83 82 78 88 80 86 97 80 82 93 96 98 95 98 61 42 28 22 18 18 18 20
82 60 84 98 98 98 95 98 97 70 95 74 82 93 94 92 80 77 75 95 100 100 99 97 95 98 93 88 86 90 98 99 98 95 95 84 90 57 46 31 24 18 17 19 22
57 68 98 98 98 98 96 99 89 89 63 71 87 96 99 99 100 100 94 100 96 98 99 91 94 100 95 91 93 98 98 97 98 97 86 65 80 59 42 32 23 23 16 14 26
69 68 88 99 98 98 99 93 86 70 63 73 70 80 89 74 100 100 98 99 97 100 100 96 93 82 94 86 83 88 89 94 93 94 81 54 67 53 35 27 26 22 17 20 31
71 66 52 98 97 98 99 93 71 64 57 59 72 70 77 94 96 100 99 100 100 100 99 98 95 90 81 70 92 98 98 74 97 97 98 68 51 42 34 27 29 22 18 14 22
92 69 73 98 97 98 99 80 74 68 65 62 52 71 81 98 93 99 98 56 72 86 100 99 96 84 73 78 99 99 98 99 98 96 94 70 61 56 45 46 46 42 30 16 30
98 71 96 98 98 98 99 87 79 69 70 66 73 76 85 91 100 100 77 55 55 54 74 99 97 92 97 97 72 99 100 97 96 97 86 77 50 39 64 66 68 48 26 31 25
99 94 65 97 97 98 100 97 83 77 79 82 85 84 92 92 99 100 90 70 64 63 64 86 97 94 93 72 80 91 74 92 88 88 85 76 60 46 54 48 54 74 67 60 26
100 99 97 81 97 98 96 91 82 86 90 90 85 90 89 97 95 91 87 68 78 78 67 71 98 98 93 95 100 96 88 95 94 79 70 81 53 37 33 56 58 74 62 61 49
80 92 98 98 98 87 85 100 94 87 93 93 94 100 93 95 98 89 76 81 80 75 83 84 90 93 93 88 97 97 95 97 97 96 78 79 69 39 43 37 40 60 80 82 66
72 97 91 98 98 98 91 77 80 93 91 85 96 86 91 100 97 93 96 81 80 82 94 95 95 92 93 99 98 98 98 97 97 80 91 69 72 52 63 42 66 97 94 84 73
88 94 96 86 99 100 90 88 84 82 81 88 92 94 100 100 98 92 80 74 71 82 92 98 91 96 95 97 99 100 99 99 95 87 79 74 76 70 78 87 83 100 80 73 64
98 96 90 96 84 91 92 91 87 93 94 98 99 99 97 96 98 98 99 89 84 96 100 100 100 98 92 98 99 98 99 99 98 93 86 97 28 59 49 94 98 97 68 63 58
Wind_Speed
23 23 21 19 20 19 19 18 18 16 14 13 14 17 17 14 16 18 17 16 20 19 20 21 23 24 26 26 25 26 28 35 37 35 33 25 21 20 20 18 14 12 10 10 12
26 24 22 20 19 18 19 18 17 18 15 14 13 16 17 16 17 17 8 15 19 21 22 21 22 21 23 26 26 29 34 37 38 35 34 29 26 19 22 22 18 16 13 12 12
28 25 24 23 21 18 18 18 18 17 15 12 12 14 16 15 17 18 16 18 20 22 23 22 22 22 23 26 28 32 37 35 36 34 33 34 32 29 27 29 18 17 15 15 15
27 28 25 24 23 20 18 18 19 17 15 13 13 13 16 15 11 13 10 13 18 22 20 20 22 23 24 26 27 32 34 35 37 37 36 36 35 34 36 33 28 22 20 17 14
26 25 24 25 24 22 20 19 19 19 17 15 14 13 14 16 16 22 16 11 7 9 13 18 21 23 25 25 28 29 31 34 37 38 38 38 40 39 41 36 36 32 29 25 20
26 26 25 24 25 24 22 21 20 20 19 17 15 13 12 14 16 18 19 20 17 17 15 17 18 17 21 22 26 28 27 30 34 37 39 41 42 41 44 38 38 37 33 32 28
29 27 25 24 24 24 24 22 21 21 21 20 18 17 14 10 11 13 16 18 17 17 17 16 17 20 20 21 24 27 29 29 33 33 33 35 47 49 44 41 41 40 40 35 33
30 24 26 23 24 24 25 23 22 23 23 22 20 20 17 14 11 10 13 15 16 16 17 18 21 22 24 23 19 14 19 23 21 22 29 30 48 32 21 34 42 39 42 42 40
36 29 26 24 26 28 24 24 23 25 23 23 21 20 19 19 18 19 17 17 17 18 18 19 22 23 24 24 21 21 22 17 19 11 15 23 35 34 33 35 37 38 43 45 45
45 29 27 28 24 26 23 22 25 26 25 23 21 18 20 13 14 15 16 18 20 20 20 21 22 23 22 23 13 15 20 20 20 16 20 28 37 38 39 38 37 41 40 48 47
42 47 27 27 28 27 29 27 25 28 26 21 9 6 11 11 14 16 14 15 16 20 21 23 26 29 27 25 26 25 19 22 24 20 25 30 39 41 40 39 46 47 41 44 48
37 51 44 35 30 31 32 32 31 23 19 19 20 22 23 21 20 20 20 20 21 21 22 25 33 30 28 28 25 28 31 33 35 31 32 41 53 47 45 44 46 47 46 46 43
31 44 50 38 31 36 30 23 26 23 22 23 22 21 21 23 26 24 21 21 20 20 21 26 23 9 20 31 29 31 33 34 37 32 34 39 60 51 46 45 42 45 45 45 45
23 37 36 40 34 37 34 29 22 18 11 12 17 21 26 27 27 24 22 19 21 20 17 21 26 29 29 27 23 36 33 30 27 21 14 7 15 37 34 31 31 40 41 43 43
23 33 36 35 36 41 34 28 17 14 2 8 16 17 17 23 16 7 15 21 23 21 20 19 18 13 25 31 28 27 24 20 15 19 23 29 17 24 19 33 37 36 31 37 40
26 29 46 40 29 34 37 22 18 10 6 8 11 13 13 16 14 10 12 15 18 22 27 29 28 29 26 21 19 23 17 15 14 17 15 27 21 39 31 40 44 36 27 31 34
29 31 49 30 30 37 41 32 17 7 7 9 13 16 16 16 14 11 11 20 17 13 24 28 32 34 32 29 26 21 16 4 8 9 8 4 21 44 23 15 18 12 18 29 29
15 23 48 20 32 43 42 35 7 12 14 10 13 15 15 11 12 12 14 21 22 27 19 12 11 19 29 34 28 28 32 10 4 4 4 14 12 28 41 43 41 35 26 20 28
12 20 51 17 32 44 42 35 17 12 26 13 17 15 12 10 9 10 18 24 21 29 18 7 9 11 14 10 22 19 29 32 19 18 6 11 27 35 35 34 32 32 29 26 26
9 15 47 20 36 42 40 24 23 14 13 17 14 9 8 8 10 10 10 6 13 21 22 13 15 18 22 17 20 34 16 11 21 4 4 10 20 26 12 20 21 22 19 23 23
5 19 30 23 31 44 39 27 26 20 14 17 11 9 8 7 12 11 9 8 7 9 11 24 18 10 11 21 29 31 35 18 12 10 4 4 10 15 11 6 19 23 24 22 27
5 13 22 25 41 44 31 32 23 22 20 13 7 10 11 9 11 18 19 11 5 7 13 19 12 19 31 28 23 26 36 42 20 6 13 11 31 20 18 17 26 11 11 18 23
6 18 14 30 34 42 33 32 28 23 19 12 9 6 8 10 9 15 16 10 13 18 5 11 12 10 7 12 27 29 40 40 37 21 28 9 18 16 20 19 22 30 9 9 16
19 6 41 40 13 38 38 33 29 25 18 14 12 14 13 13 18 10 14 9 6 3 14 19 23 26 22 31 25 24 36 41 41 28 41 45 35 45 35 38 31 33 9 3 13
25 8 35 47 21 33 33 20 28 23 25 18 13 14 13 12 16 22 24 14 12 15 19 22 32 35 46 49 38 38 31 25 43 53 27 40 39 44 37 32 32 14 6 3 5
13 12 28 13 29 29 30 30 19 26 21 19 17 12 9 20 17 9 10 20 19 14 15 24 37 36 48 40 22 38 39 36 31 41 54 50 47 33 30 32 20 7 5 8 7
13 17 33 10 38 34 34 28 19 16 13 15 13 9 12 12 10 14 18 14 14 12 21 28 29 20 20 24 11 3 13 28 30 33 34 40 28 32 31 26 21 12 5 18 16
Wind_Direction
273 272 275 277 276 276 275 269 266 261 258 252 258 259 254 252 251 246 246 245 245 245 240 241 239 239 240 239 238 237 237 245 247 249 247 251 247 233 237 236 225 229 246 258 256
280 273 271 273 274 274 274 271 263 263 263 256 254 258 256 252 256 254 248 246 243 240 240 237 238 236 235 239 236 235 238 244 250 253 256 255 252 244 232 234 226 228 240 248 256
278 272 269 270 270 269 271 273 266 263 262 259 251 252 256 256 265 268 251 240 241 242 240 239 240 240 239 236 235 238 242 244 251 257 257 255 250 247 235 223 222 235 231 243 247
279 275 265 265 266 266 263 265 266 261 260 257 259 259 261 255 251 262 258 240 240 239 239 238 237 241 247 247 245 243 246 250 254 253 256 257 255 249 242 232 229 234 234 236 248
272 270 262 261 261 261 260 260 261 261 258 260 264 264 263 261 253 258 254 248 235 219 237 240 240 245 250 249 247 252 251 252 257 258 256 256 254 254 245 237 233 239 238 236 229
270 266 263 252 257 258 257 256 258 258 257 256 259 262 268 271 249 250 254 253 244 242 243 245 245 241 246 246 248 254 257 256 256 257 259 260 257 255 245 242 233 234 236 236 231
260 262 262 252 252 253 254 253 254 256 254 253 254 256 256 257 255 255 254 254 248 245 246 237 237 240 244 254 256 256 260 258 256 259 262 265 262 255 254 249 242 233 234 233 236
259 251 252 250 250 250 247 248 252 252 251 252 252 253 256 251 248 246 251 255 252 245 241 243 242 242 245 247 251 269 276 273 270 265 264 260 258 252 250 258 250 242 238 237 238
250 246 244 242 242 244 244 242 245 250 249 252 252 256 259 254 250 247 249 248 247 245 239 238 242 244 242 240 254 257 256 267 287 267 264 254 265 267 264 255 248 243 237 238 239
234 244 237 233 233 241 242 236 239 243 247 250 256 256 247 242 238 240 234 236 235 239 241 237 240 242 240 230 232 244 248 266 264 280 271 261 262 262 259 255 251 246 239 237 239
234 231 240 238 218 234 234 231 231 236 243 248 215 214 251 249 236 228 226 238 238 235 238 244 238 236 245 251 255 258 253 256 262 263 277 270 267 263 260 256 253 248 242 238 239
242 228 240 230 211 224 236 234 239 241 246 244 246 242 248 249 245 241 248 246 245 244 241 241 251 256 257 250 253 257 259 263 269 275 273 277 274 270 264 257 252 252 246 243 240
248 228 229 232 200 222 233 240 239 239 253 250 249 243 246 248 249 247 244 248 249 247 245 250 253 257 256 254 247 252 254 263 273 282 270 277 281 278 267 265 257 254 253 246 241
264 227 222 227 208 221 213 231 232 237 250 259 247 245 237 237 253 256 248 242 244 248 248 261 255 255 256 257 252 258 262 267 272 271 262 285 287 277 266 263 258 254 252 248 247
255 227 210 219 207 227 213 195 214 216 330 233 220 222 225 215 230 231 223 230 236 243 244 252 270 267 254 258 255 255 269 271 272 264 276 263 270 283 285 270 263 256 255 251 247
262 231 202 208 211 222 202 188 194 182 249 210 196 197 184 185 192 193 211 221 233 250 256 261 267 265 263 265 261 259 251 255 252 252 249 248 226 277 267 275 277 269 263 253 249
262 230 209 208 201 208 193 196 176 194 198 212 192 190 180 190 200 205 212 214 227 231 248 261 257 259 259 258 258 244 225 244 225 209 247 222 226 252 265 279 295 288 259 248 247
247 222 203 169 182 194 189 179 174 204 195 201 179 172 186 198 215 226 229 229 233 229 247 261 277 247 252 248 247 241 231 221 239 230 257 247 244 254 277 283 279 278 279 264 224
240 252 206 173 177 184 183 178 191 190 201 173 156 175 199 226 221 215 240 245 242 228 227 242 254 249 255 250 235 225 221 245 247 249 253 239 261 272 279 281 285 276 275 268 239
261 225 184 171 186 180 186 184 189 195 179 193 186 192 188 198 206 219 242 267 245 248 233 246 267 257 258 249 227 224 231 212 221 237 243 251 263 255 273 313 285 272 262 251 237
243 201 192 171 191 174 184 187 189 196 191 174 201 200 219 242 224 227 244 262 258 277 235 235 248 263 235 229 233 214 225 219 222 210 214 274 266 276 197 294 333 275 256 266 236
146 156 210 189 172 175 189 189 186 191 187 196 211 250 251 257 243 230 247 244 256 253 251 234 253 256 257 269 264 251 245 230 221 202 228 245 260 240 223 308 311 327 239 240 227
137 169 180 222 173 185 190 193 193 193 201 220 238 236 274 244 238 246 263 249 263 250 274 239 233 274 284 260 246 234 245 235 233 237 241 221 255 271 260 273 288 324 276 196 200
166 188 168 184 201 191 194 196 198 210 216 229 255 270 266 243 236 254 252 240 246 265 254 261 258 254 254 263 263 232 241 234 222 226 241 238 257 255 268 282 292 303 327 245 196
199 189 174 188 184 195 201 215 210 219 223 236 262 266 253 232 244 254 241 227 253 286 270 260 270 277 285 279 264 256 242 235 216 227 224 254 256 263 273 283 295 287 329 20 116
230 207 179 183 189 196 205 214 211 225 226 240 261 258 262 236 238 254 297 243 257 275 271 269 266 283 289 304 302 255 244 246 246 235 238 249 258 256 270 278 266 135 309 124 137
201 213 196 199 199 207 208 207 220 196 230 250 263 265 240 262 274 268 240 221 229 265 286 283 284 292 294 316 323 51 255 237 241 240 242 236 250 260 263 262 305 310 203 150 145